Stündliche Wetter Kyzylzharma

Heute, 16 Mai, Sonntag

Zeit Temperatur Niederschläge Wind Luftdruck Luftfeuchtigkeit
00:00 +21°C° 0 mm 5 m/S 753 mmHg 25%
01:00 +20°C° 0 mm 4 m/S 753 mmHg 27%
02:00 +20°C° 0 mm 4 m/S 753 mmHg 28%
03:00 +19°C° 0 mm 4 m/S 753 mmHg 30%
04:00 +19°C° 0 mm 4 m/S 753 mmHg 31%
05:00 +20°C° 0 mm 5 m/S 754 mmHg 28%
06:00 +21°C° 0 mm 6 m/S 754 mmHg 25%
07:00 +23°C° 0 mm 7 m/S 754 mmHg 23%
08:00 +26°C° 0 mm 7 m/S 754 mmHg 20%
09:00 +28°C° 0 mm 8 m/S 754 mmHg 17%
10:00 +31°C° 0 mm 9 m/S 754 mmHg 14%
11:00 +31°C° 0 mm 9 m/S 754 mmHg 13%
12:00 +32°C° 0 mm 9 m/S 753 mmHg 12%
13:00 +33°C° 0 mm 9 m/S 753 mmHg 11%
14:00 +33°C° 0 mm 9 m/S 753 mmHg 11%
15:00 +33°C° 0 mm 9 m/S 752 mmHg 11%
16:00 +34°C° 0 mm 9 m/S 752 mmHg 10%
17:00 +32°C° 0 mm 7 m/S 752 mmHg 12%
18:00 +30°C° 0 mm 6 m/S 752 mmHg 13%
19:00 +29°C° 0 mm 5 m/S 752 mmHg 14%
20:00 +28°C° 0 mm 5 m/S 752 mmHg 16%
21:00 +27°C° 0 mm 5 m/S 752 mmHg 17%
22:00 +26°C° 0 mm 5 m/S 752 mmHg 18%
23:00 +25°C° 0 mm 5 m/S 752 mmHg 19%

Morgen, 17 Mai, Montag

Zeit Temperatur Niederschläge Wind Luftdruck Luftfeuchtigkeit
00:00 +25°C° 0 mm 5 m/S 752 mmHg 21%
01:00 +23°C° 0 mm 5 m/S 752 mmHg 22%
02:00 +22°C° 0 mm 4 m/S 752 mmHg 24%
03:00 +22°C° 0 mm 4 m/S 752 mmHg 25%
04:00 +21°C° 0 mm 4 m/S 752 mmHg 27%
05:00 +23°C° 0 mm 5 m/S 752 mmHg 25%
06:00 +25°C° 0 mm 5 m/S 752 mmHg 22%
07:00 +27°C° 0 mm 6 m/S 753 mmHg 19%
08:00 +29°C° 0 mm 7 m/S 752 mmHg 19%
09:00 +31°C° 0 mm 8 m/S 752 mmHg 18%
10:00 +33°C° 0 mm 8 m/S 752 mmHg 17%
11:00 +34°C° 0 mm 8 m/S 752 mmHg 16%
12:00 +35°C° 0 mm 8 m/S 751 mmHg 15%
13:00 +37°C° 0 mm 9 m/S 751 mmHg 14%
14:00 +37°C° 0 mm 8 m/S 750 mmHg 13%
15:00 +37°C° 0 mm 8 m/S 750 mmHg 13%
16:00 +36°C° 0 mm 7 m/S 750 mmHg 13%
17:00 +35°C° 0 mm 6 m/S 749 mmHg 13%
18:00 +33°C° 0 mm 5 m/S 749 mmHg 14%
19:00 +32°C° 0 mm 4 m/S 749 mmHg 15%
20:00 +30°C° 0 mm 4 m/S 749 mmHg 16%
21:00 +29°C° 0 mm 3 m/S 749 mmHg 18%
22:00 +28°C° 0 mm 3 m/S 749 mmHg 19%
23:00 +27°C° 0 mm 3 m/S 749 mmHg 20%

übermorgen, 18 Mai, Dienstag

Zeit Temperatur Niederschläge Wind Luftdruck Luftfeuchtigkeit
00:00 +27°C° 0 mm 3 m/S 749 mmHg 22%
01:00 +26°C° 0 mm 3 m/S 748 mmHg 23%
02:00 +25°C° 0 mm 3 m/S 748 mmHg 26%
03:00 +25°C° 0 mm 3 m/S 748 mmHg 28%
04:00 +24°C° 0 mm 3 m/S 748 mmHg 31%
05:00 +26°C° 0 mm 4 m/S 748 mmHg 29%
06:00 +27°C° 0 mm 4 m/S 748 mmHg 28%
07:00 +29°C° 0 mm 5 m/S 748 mmHg 26%
08:00 +32°C° 0 mm 5 m/S 748 mmHg 21%
09:00 +33°C° 0 mm 6 m/S 748 mmHg 16%
10:00 +35°C° 0 mm 6 m/S 748 mmHg 12%
11:00 +36°C° 0 mm 6 m/S 747 mmHg 12%
12:00 +36°C° 0 mm 6 m/S 747 mmHg 12%
13:00 +38°C° 0 mm 6 m/S 747 mmHg 13%
14:00 +37°C° 0 mm 5 m/S 746 mmHg 13%
15:00 +37°C° 0 mm 5 m/S 746 mmHg 13%
16:00 +37°C° 0 mm 5 m/S 746 mmHg 13%
17:00 +35°C° 0.1 mm 5 m/S 746 mmHg 16%
18:00 +33°C° 0.1 mm 6 m/S 745 mmHg 19%
19:00 +32°C° 0.1 mm 6 m/S 745 mmHg 23%
20:00 +30°C° 0 mm 6 m/S 745 mmHg 25%
21:00 +29°C° 0 mm 5 m/S 745 mmHg 27%
22:00 +29°C° 0 mm 5 m/S 745 mmHg 30%
23:00 +28°C° 0 mm 4 m/S 745 mmHg 30%

19 Mai, Mittwoch

Zeit Temperatur Niederschläge Wind Luftdruck Luftfeuchtigkeit
00:00 +28°C° 0 mm 4 m/S 745 mmHg 30%
01:00 +27°C° 0 mm 3 m/S 744 mmHg 31%
02:00 +26°C° 0 mm 3 m/S 744 mmHg 32%
03:00 +26°C° 0 mm 3 m/S 744 mmHg 33%
04:00 +25°C° 0 mm 3 m/S 744 mmHg 35%
05:00 +26°C° 0 mm 3 m/S 745 mmHg 31%
06:00 +28°C° 0 mm 3 m/S 745 mmHg 28%
07:00 +29°C° 0 mm 3 m/S 745 mmHg 24%
08:00 +31°C° 0 mm 3 m/S 745 mmHg 22%
09:00 +34°C° 0 mm 3 m/S 745 mmHg 19%
10:00 +35°C° 0 mm 2 m/S 745 mmHg 16%
11:00 +36°C° 0 mm 3 m/S 744 mmHg 15%
12:00 +37°C° 0 mm 4 m/S 744 mmHg 13%
13:00 +38°C° 0 mm 4 m/S 744 mmHg 12%
14:00 +38°C° 0 mm 4 m/S 744 mmHg 12%
15:00 +38°C° 0 mm 4 m/S 744 mmHg 12%
16:00 +38°C° 0 mm 4 m/S 743 mmHg 12%
17:00 +35°C° 0 mm 7 m/S 744 mmHg 20%
18:00 +32°C° 0 mm 10 m/S 744 mmHg 29%
19:00 +28°C° 0 mm 13 m/S 745 mmHg 37%
20:00 +27°C° 0 mm 10 m/S 745 mmHg 41%
21:00 +26°C° 0 mm 8 m/S 745 mmHg 44%
22:00 +25°C° 0 mm 5 m/S 746 mmHg 48%
23:00 +23°C° 0.1 mm 5 m/S 746 mmHg 51%

20 Mai, Donnerstag

Zeit Temperatur Niederschläge Wind Luftdruck Luftfeuchtigkeit
00:00 +23°C° 0.1 mm 4 m/S 746 mmHg 53%
01:00 +22°C° 0.1 mm 3 m/S 747 mmHg 56%
02:00 +22°C° 0 mm 4 m/S 747 mmHg 56%
03:00 +22°C° 0 mm 5 m/S 747 mmHg 57%
04:00 +21°C° 0 mm 6 m/S 747 mmHg 57%
05:00 +22°C° 0 mm 7 m/S 747 mmHg 54%
06:00 +22°C° 0 mm 7 m/S 748 mmHg 51%
07:00 +22°C° 0 mm 8 m/S 748 mmHg 47%
08:00 +24°C° 0 mm 8 m/S 749 mmHg 43%
09:00 +26°C° 0 mm 8 m/S 749 mmHg 39%
10:00 +28°C° 0 mm 8 m/S 749 mmHg 34%
11:00 +29°C° 0 mm 8 m/S 749 mmHg 31%
12:00 +31°C° 0 mm 8 m/S 749 mmHg 27%
13:00 +32°C° 0 mm 8 m/S 749 mmHg 23%
14:00 +32°C° 0 mm 7 m/S 749 mmHg 22%
15:00 +32°C° 0 mm 7 m/S 748 mmHg 22%
16:00 +33°C° 0 mm 7 m/S 748 mmHg 21%
17:00 +30°C° 0 mm 7 m/S 748 mmHg 25%
18:00 +29°C° 0 mm 7 m/S 749 mmHg 29%
19:00 +28°C° 0 mm 7 m/S 749 mmHg 33%
20:00 +27°C° 0.1 mm 7 m/S 749 mmHg 33%
21:00 +27°C° 0.1 mm 8 m/S 749 mmHg 32%
22:00 +26°C° 0.1 mm 9 m/S 749 mmHg 32%
23:00 +24°C° 0.2 mm 9 m/S 749 mmHg 31%

21 Mai, Freitag

Zeit Temperatur Niederschläge Wind Luftdruck Luftfeuchtigkeit
00:00 +23°C° 0.2 mm 8 m/S 749 mmHg 30%
01:00 +23°C° 0.2 mm 8 m/S 750 mmHg 28%
02:00 +22°C° 0 mm 8 m/S 750 mmHg 26%
03:00 +21°C° 0 mm 8 m/S 750 mmHg 24%
04:00 +20°C° 0 mm 8 m/S 750 mmHg 22%
05:00 +21°C° 0 mm 9 m/S 750 mmHg 21%
06:00 +22°C° 0 mm 10 m/S 751 mmHg 21%
07:00 +22°C° 0 mm 11 m/S 751 mmHg 20%
08:00 +24°C° 0 mm 12 m/S 751 mmHg 19%
09:00 +26°C° 0 mm 12 m/S 751 mmHg 17%
10:00 +28°C° 0 mm 12 m/S 751 mmHg 15%
11:00 +29°C° 0 mm 12 m/S 751 mmHg 13%
12:00 +31°C° 0 mm 12 m/S 750 mmHg 12%
13:00 +32°C° 0 mm 12 m/S 750 mmHg 10%
14:00 +32°C° 0 mm 12 m/S 750 mmHg 9%
15:00 +32°C° 0 mm 12 m/S 750 mmHg 9%
16:00 +32°C° 0 mm 11 m/S 750 mmHg 8%
17:00 +31°C° 0 mm 11 m/S 750 mmHg 10%
18:00 +29°C° 0 mm 10 m/S 750 mmHg 11%
19:00 +28°C° 0 mm 9 m/S 750 mmHg 12%
20:00 +27°C° 0 mm 9 m/S 751 mmHg 14%
21:00 +26°C° 0 mm 8 m/S 751 mmHg 16%
22:00 +24°C° 0 mm 8 m/S 751 mmHg 17%
23:00 +23°C° 0 mm 8 m/S 751 mmHg 18%
Mehr zeigen

Wir brauchen deine Erlaubnis

Meteoprog und unser Service Anbieter werden persönliche Daten aufbewahren, so wie Cookies, Geräte Bezeichnung oder ähnliche Technologien von deinem Gerät und Prozess, so wie Persönliche Daten Inhalte und Werbungen, genauso wie social Media und den Verkehr zu analysieren.

  • Aufbewahrung und/oder Zugang zu deiner Geräte Informationen.

    Cookies, Geräte Bezeichnung oder andere Informationen, können aufbewahrt oder Zugang zu deinem Gerät erhalten, für den Grund, der oben angegeben wird.

  • Personalisierte Werbung und Inhalte, Messungen, Einblick in das Publikum und Produkt Entwicklung.

    Werbungen und Inhalte können personalisiert werden, basierend auf ein Profil. Mehr Daten können besser personalisierte Werbungen und Inhalte hinzufügen. Werbung und Inhalte können gezeigt und gemessen werden. Einblicke über das Publikum, welche die Werbung gesehen haben und den Inhalt, können abgeleitet werden. So wie Daten können genutzt werden, um es zu verbessern oder die Benutzer Erfahrung zu verbessern das System und die Software.

Wenn du “Ich stimme zu” klickst, erlaubst du uns, die Cookies zu benutzen die Geräte Bezeichnung, den Web oder ähnliche Technologien zu benutzen. Deine Settings, können in deinem Gerät bei deinem Browser geändert werden.

Für den bestimmten Zweck, berechtigten Interessen beruhen darauf, mehr als auf den Inhalt. Du kannst mehr darüber in unseren Privaten und Cookie Politik lesen.